Indian Springs, NV

2:09 AM PDT on April 30, 2017 (GMT -0700)
Indian Springs Air Force Auxiliary

Weather History for KINS - May, 2014

Change the Weather History Date:

Tuesday, May 13, 2014

  Actual Average (KDRA) Record (KDRA)
Temperature  
Mean Temperature 66 °F -  
Max Temperature 77 °F 81 °F 99 °F (1996)
Min Temperature 54 °F 52 °F 43 °F (1998)
Growing Degree Days 16 (Base 50)    
Moisture  
Dew Point 8 °F    
Average Humidity 11    
Maximum Humidity 23    
Minimum Humidity 5    
Precipitation  
Precipitation 0.00 in - - ()
Sea Level Pressure  
Sea Level Pressure 30.23 in    
Wind  
Wind Speed 9 mph (NE)    
Max Wind Speed 15 mph    
Max Gust Speed 20 mph    
Visibility 10 miles    
Events      
Averages and records for this station are not official NWS values.
T = Trace of Precipitation, MM = Missing Value Source: NWS Daily Summary

Daily Weather History Graph

Daily Weather History Graph

Search for Another Location

Airport or City:

Trip Planner

Search our weather history database for the weather conditions in past years. The results will help you decide how hot, cold, wet, or windy it might be!

Date:

Astronomy

May. 13, 2014 Rise Set
Actual Time 5:37 AM PDT 7:41 PM PDT
Civil Twilight 5:08 AM PDT 8:10 PM PDT
Nautical Twilight 4:33 AM PDT 8:45 PM PDT
Astronomical Twilight 3:55 AM PDT 9:22 PM PDT
Moon 6:49 PM PDT (5/13) 4:54 AM PDT (5/13)
Length of Visible Light 15h 01m
Length of Day
14h 04m
Waxing Gibbous, 99% of the Moon is Illuminated
May 13
Waxing Gibbous
May 14
Full
May 21
Last Quarter
May 28
New
Jun 5
First Quarter

Hourly Weather History & Observations

Time (PDT) Temp. Dew Point Humidity Pressure Visibility Wind Dir Wind Speed Gust Speed Precip Events Conditions
12:58 AM 63.9 °F 18.5 °F 17% 30.15 in 10.0 mi NNE 12.7 mph - N/A   Clear
1:58 AM 61.5 °F 18.0 °F 19% 30.17 in 10.0 mi NNE 8.1 mph - N/A   Clear
2:58 AM 60.3 °F 18.1 °F 20% 30.18 in 10.0 mi NNE 6.9 mph - N/A   Clear
3:58 AM 54.3 °F 16.7 °F 23% 30.20 in 10.0 mi NE 2.3 mph - N/A   Clear
4:58 AM 57.7 °F 17.1 °F 20% 30.20 in 10.0 mi Variable 5.8 mph - N/A   Clear
6:58 AM 56.8 °F 17.4 °F 21% 30.27 in 10.0 mi Variable 1.2 mph - N/A   Clear
7:58 AM 62.4 °F 11.8 °F 14% 30.28 in 10.0 mi NNE 11.5 mph - N/A   Clear
8:58 AM 64.2 °F 10.9 °F 12% 30.28 in 10.0 mi NNE 13.8 mph 18.4 mph N/A   Clear
9:49 AM 66.2 °F 8.6 °F 11% 30.38 in 10.0 mi ENE 13.8 mph 17.3 mph N/A   Clear
10:54 AM 68.0 °F 8.6 °F 10% 30.38 in 10.0 mi NE 12.7 mph 19.6 mph N/A   Partly Cloudy
10:58 AM 67.3 °F 9.1 °F 10% 30.29 in 10.0 mi NE 8.1 mph 18.4 mph N/A   Partly Cloudy
11:58 AM 69.6 °F 6.1 °F 8% 30.26 in 10.0 mi NNE 13.8 mph 18.4 mph N/A   Clear
12:23 PM 71.6 °F 3.2 °F 7% 30.36 in 10.0 mi NE 12.7 mph 16.1 mph N/A   Clear
12:58 PM 71.1 °F 4.3 °F 7% 30.25 in 10.0 mi NNE 5.8 mph 18.4 mph N/A   Clear
1:58 PM 72.3 °F 2.5 °F 6% 30.22 in 10.0 mi NE 8.1 mph - N/A   Clear
2:58 PM 75.9 °F 4.5 °F 6% 30.20 in 10.0 mi Variable 5.8 mph - N/A   Clear
3:58 PM 76.6 °F 1.0 °F 5% 30.18 in 10.0 mi East 6.9 mph - N/A   Clear
4:40 PM 77.0 °F 1.4 °F 5% 30.26 in 10.0 mi NNE 15.0 mph 17.3 mph N/A   Clear
4:58 PM 77.4 °F 1.6 °F 5% 30.16 in 10.0 mi ENE 5.8 mph - N/A   Clear
5:58 PM 77.4 °F 1.6 °F 5% 30.16 in 10.0 mi North 6.9 mph - N/A   Clear
6:58 PM 76.1 °F 0.5 °F 5% 30.16 in 10.0 mi East 8.1 mph - N/A   Clear
7:58 PM 73.2 °F 2.5 °F 6% 30.15 in 10.0 mi East 6.9 mph - N/A   Clear
8:58 PM 68.5 °F 5.2 °F 8% 30.17 in 10.0 mi East 8.1 mph - N/A   Clear
9:58 PM 65.1 °F 7.5 °F 10% 30.19 in 10.0 mi Variable 2.3 mph - N/A   Clear
10:58 PM 65.1 °F 7.3 °F 10% 30.20 in 10.0 mi NNW 3.5 mph - N/A   Clear
11:58 PM 58.3 °F 6.1 °F 12% 30.22 in 10.0 mi NNW 6.9 mph - N/A   Clear